When you browse on this site, cookies collect data to enhance your experience and personalize the content and advertising you see.
Visit our Privacy Policy to learn more. By continuing to use the site, you agree to this use of cookies and data.
  • In Hungary
  • List of Countries
  • For 7 days
  • Water Temperature
  • Satellite Maps
  • Weather Map
  • News
  • Weather Widgets
  • user-avatar
    Login

    Hourly Weather Postolivka

    Today, 18 July, Thursday

    Time Temperature Precipitation Wind Pressure Humidity
    00:00 +11°C° 0 mm 3 mps 734 mmHg 94%
    01:00 +11°C° 0 mm 3 mps 733 mmHg 94%
    02:00 +11°C° 0 mm 3 mps 733 mmHg 95%
    03:00 +11°C° 0 mm 3 mps 734 mmHg 95%
    04:00 +10°C° 0 mm 3 mps 734 mmHg 95%
    05:00 +10°C° 0 mm 3 mps 734 mmHg 96%
    06:00 +12°C° 0 mm 3 mps 734 mmHg 90%
    07:00 +13°C° 0 mm 4 mps 734 mmHg 85%
    08:00 +15°C° 0 mm 4 mps 735 mmHg 79%
    09:00 +17°C° 0 mm 4 mps 735 mmHg 74%
    10:00 +17°C° 0 mm 5 mps 735 mmHg 70%
    11:00 +20°C° 0 mm 5 mps 735 mmHg 65%
    12:00 +20°C° 0 mm 5 mps 735 mmHg 64%
    13:00 +21°C° 0 mm 5 mps 735 mmHg 63%
    14:00 +21°C° 0 mm 5 mps 735 mmHg 62%
    15:00 +21°C° 0 mm 5 mps 735 mmHg 63%
    16:00 +21°C° 0 mm 4 mps 735 mmHg 64%
    17:00 +21°C° 0 mm 4 mps 735 mmHg 65%
    18:00 +20°C° 0 mm 3 mps 735 mmHg 71%
    19:00 +18°C° 0 mm 3 mps 736 mmHg 77%
    20:00 +17°C° 0 mm 2 mps 736 mmHg 82%
    21:00 +16°C° 0 mm 2 mps 736 mmHg 84%
    22:00 +15°C° 0 mm 1 mps 736 mmHg 87%
    23:00 +15°C° 0 mm 1 mps 737 mmHg 89%

    Tomorrow, 19 July, Friday

    Time Temperature Precipitation Wind Pressure Humidity
    00:00 +14°C° 0 mm 1 mps 737 mmHg 89%
    01:00 +14°C° 0 mm 2 mps 737 mmHg 90%
    02:00 +14°C° 0 mm 2 mps 737 mmHg 91%
    03:00 +13°C° 0 mm 1 mps 737 mmHg 91%
    04:00 +13°C° 0 mm 1 mps 737 mmHg 90%
    05:00 +13°C° 0 mm 1 mps 737 mmHg 90%
    06:00 +15°C° 0 mm 1 mps 737 mmHg 85%
    07:00 +18°C° 0 mm 1 mps 738 mmHg 79%
    08:00 +20°C° 0 mm 1 mps 738 mmHg 73%
    09:00 +21°C° 0.1 mm 1 mps 738 mmHg 69%
    10:00 +21°C° 0.1 mm 2 mps 738 mmHg 66%
    11:00 +23°C° 0.1 mm 2 mps 738 mmHg 62%
    12:00 +23°C° 0.5 mm 2 mps 738 mmHg 64%
    13:00 +23°C° 0.5 mm 2 mps 738 mmHg 66%
    14:00 +23°C° 0.5 mm 2 mps 738 mmHg 68%
    15:00 +24°C° 0.1 mm 1 mps 738 mmHg 65%
    16:00 +24°C° 0.1 mm 1 mps 738 mmHg 63%
    17:00 +25°C° 0.1 mm 1 mps 738 mmHg 61%
    18:00 +23°C° 0.2 mm 1 mps 738 mmHg 67%
    19:00 +22°C° 0.2 mm 1 mps 738 mmHg 72%
    20:00 +20°C° 0.2 mm 1 mps 738 mmHg 78%
    21:00 +19°C° 0.5 mm 1 mps 738 mmHg 81%
    22:00 +18°C° 0.5 mm 1 mps 738 mmHg 85%
    23:00 +18°C° 0.5 mm 1 mps 739 mmHg 88%

    Day after tomorrow, 20 July, Saturday

    Time Temperature Precipitation Wind Pressure Humidity
    00:00 +16°C° 0 mm 1 mps 739 mmHg 88%
    01:00 +15°C° 0 mm 0 mps 738 mmHg 89%
    02:00 +14°C° 0 mm 0 mps 738 mmHg 89%
    03:00 +14°C° 0 mm 0 mps 738 mmHg 90%
    04:00 +14°C° 0 mm 0 mps 738 mmHg 91%
    05:00 +15°C° 0 mm 1 mps 739 mmHg 92%
    06:00 +18°C° 0 mm 1 mps 739 mmHg 88%
    07:00 +17°C° 0 mm 0 mps 739 mmHg 84%
    08:00 +19°C° 0 mm 0 mps 739 mmHg 81%
    09:00 +22°C° 0.2 mm 1 mps 740 mmHg 77%
    10:00 +23°C° 0.2 mm 1 mps 740 mmHg 72%
    11:00 +24°C° 0.2 mm 1 mps 740 mmHg 68%
    12:00 +24°C° 0.8 mm 1 mps 740 mmHg 69%
    13:00 +24°C° 0.8 mm 1 mps 740 mmHg 71%
    14:00 +24°C° 0.8 mm 1 mps 740 mmHg 73%
    15:00 +24°C° 1 mm 1 mps 740 mmHg 74%
    16:00 +24°C° 1 mm 1 mps 740 mmHg 76%
    17:00 +24°C° 1 mm 1 mps 739 mmHg 77%
    18:00 +23°C° 0.2 mm 1 mps 739 mmHg 78%
    19:00 +22°C° 0.2 mm 1 mps 740 mmHg 79%
    20:00 +21°C° 0.2 mm 1 mps 740 mmHg 80%
    21:00 +20°C° 0.2 mm 1 mps 740 mmHg 82%
    22:00 +19°C° 0.2 mm 1 mps 740 mmHg 83%
    23:00 +19°C° 0.2 mm 1 mps 740 mmHg 85%

    21 July, Sunday

    Time Temperature Precipitation Wind Pressure Humidity
    00:00 +18°C° 0 mm 1 mps 740 mmHg 85%
    01:00 +18°C° 0 mm 1 mps 740 mmHg 86%
    02:00 +16°C° 0 mm 1 mps 740 mmHg 87%
    03:00 +16°C° 0 mm 1 mps 740 mmHg 87%
    04:00 +16°C° 0 mm 1 mps 740 mmHg 88%
    05:00 +16°C° 0 mm 1 mps 740 mmHg 89%
    06:00 +19°C° 0 mm 1 mps 740 mmHg 86%
    07:00 +20°C° 0 mm 1 mps 740 mmHg 82%
    08:00 +22°C° 0 mm 1 mps 740 mmHg 79%
    09:00 +23°C° 0 mm 1 mps 740 mmHg 75%
    10:00 +25°C° 0 mm 1 mps 740 mmHg 70%
    11:00 +26°C° 0 mm 2 mps 740 mmHg 65%
    12:00 +27°C° 0 mm 2 mps 740 mmHg 62%
    13:00 +28°C° 0 mm 2 mps 740 mmHg 60%
    14:00 +28°C° 0 mm 2 mps 740 mmHg 57%
    15:00 +28°C° 0.1 mm 2 mps 740 mmHg 59%
    16:00 +28°C° 0.1 mm 1 mps 740 mmHg 61%
    17:00 +28°C° 0.1 mm 1 mps 739 mmHg 62%
    18:00 +27°C° 1.1 mm 1 mps 739 mmHg 68%
    19:00 +25°C° 1.1 mm 1 mps 739 mmHg 73%
    20:00 +23°C° 1.1 mm 1 mps 739 mmHg 78%
    21:00 +23°C° 1.7 mm 1 mps 739 mmHg 82%
    22:00 +22°C° 1.7 mm 1 mps 739 mmHg 87%
    23:00 +21°C° 1.7 mm 1 mps 739 mmHg 91%

    22 July, Monday

    Time Temperature Precipitation Wind Pressure Humidity
    00:00 +20°C° 0.2 mm 2 mps 739 mmHg 91%
    01:00 +19°C° 0.2 mm 2 mps 739 mmHg 92%
    02:00 +19°C° 0.2 mm 2 mps 739 mmHg 92%
    03:00 +19°C° 0 mm 3 mps 739 mmHg 93%
    04:00 +18°C° 0 mm 3 mps 739 mmHg 94%
    05:00 +18°C° 0 mm 3 mps 739 mmHg 95%
    06:00 +19°C° 0 mm 3 mps 739 mmHg 91%
    07:00 +20°C° 0 mm 4 mps 739 mmHg 88%
    08:00 +21°C° 0 mm 5 mps 739 mmHg 84%
    09:00 +22°C° 0 mm 5 mps 739 mmHg 80%
    10:00 +23°C° 0 mm 5 mps 739 mmHg 75%
    11:00 +25°C° 0 mm 5 mps 739 mmHg 71%
    12:00 +26°C° 0.2 mm 5 mps 739 mmHg 70%
    13:00 +26°C° 0.2 mm 5 mps 739 mmHg 69%
    14:00 +26°C° 0.2 mm 5 mps 739 mmHg 69%
    15:00 +26°C° 0.1 mm 5 mps 739 mmHg 69%
    16:00 +26°C° 0.1 mm 4 mps 739 mmHg 70%
    17:00 +25°C° 0.1 mm 4 mps 739 mmHg 71%
    18:00 +23°C° 0 mm 4 mps 739 mmHg 76%
    19:00 +21°C° 0 mm 3 mps 739 mmHg 82%
    20:00 +20°C° 0 mm 3 mps 739 mmHg 88%
    21:00 +19°C° 0 mm 2 mps 738 mmHg 90%
    22:00 +19°C° 0 mm 2 mps 738 mmHg 91%
    23:00 +18°C° 0 mm 2 mps 738 mmHg 93%

    23 July, Tuesday

    Time Temperature Precipitation Wind Pressure Humidity
    00:00 +17°C° 0 mm 2 mps 738 mmHg 93%
    01:00 +17°C° 0 mm 2 mps 738 mmHg 94%
    02:00 +17°C° 0 mm 2 mps 738 mmHg 94%
    03:00 +17°C° 0 mm 2 mps 738 mmHg 94%
    04:00 +16°C° 0 mm 2 mps 738 mmHg 95%
    05:00 +16°C° 0 mm 2 mps 737 mmHg 95%
    06:00 +18°C° 0 mm 2 mps 738 mmHg 91%
    07:00 +19°C° 0 mm 3 mps 738 mmHg 87%
    08:00 +20°C° 0 mm 3 mps 738 mmHg 83%
    09:00 +21°C° 0 mm 4 mps 738 mmHg 79%
    10:00 +22°C° 0 mm 4 mps 738 mmHg 74%
    11:00 +23°C° 0 mm 5 mps 738 mmHg 70%
    12:00 +23°C° 0.3 mm 5 mps 738 mmHg 71%
    13:00 +23°C° 0.3 mm 5 mps 738 mmHg 72%
    14:00 +25°C° 0.3 mm 5 mps 738 mmHg 73%
    15:00 +23°C° 0.5 mm 5 mps 738 mmHg 74%
    16:00 +23°C° 0.5 mm 5 mps 737 mmHg 75%
    17:00 +23°C° 0.5 mm 5 mps 737 mmHg 76%
    18:00 +21°C° 0.4 mm 4 mps 737 mmHg 81%
    19:00 +20°C° 0.4 mm 3 mps 737 mmHg 86%
    20:00 +19°C° 0.4 mm 3 mps 738 mmHg 90%
    21:00 +18°C° 0.2 mm 3 mps 738 mmHg 91%
    22:00 +18°C° 0.2 mm 3 mps 738 mmHg 92%
    23:00 +17°C° 0.2 mm 3 mps 738 mmHg 92%
    Show more